Location: Broadview
(41.2178°N, 81.6385°W)
Time: 16:23:12
(UTC+00:00)

Envisat - Visible Passes

Search period start: 05 October 2022 00:00
Search period end: 15 October 2022 00:00
Orbit: 764 x 765 km, 98.2° (Epoch: 04 October)

Date Brightness Start Highest point End Pass type
(mag) Time Alt. Az. Time Alt. Az. Time Alt. Az.
05 Oct 3.7 09:27:21 10° NNE 09:32:20 53° E 09:37:16 10° S visible
06 Oct 5.1 08:51:06 10° NE 08:55:10 24° E 08:59:11 10° SSE visible
06 Oct 3.4 10:29:33 10° N 10:34:17 40° WNW 10:39:00 10° SW visible
07 Oct 2.9 09:52:20 10° NNE 09:57:27 89° WNW 10:02:32 10° SSW visible
08 Oct 4.2 09:15:38 10° NNE 09:20:25 41° E 09:25:11 10° SSE visible
08 Oct 4.1 10:55:09 10° NNW 10:59:10 24° WNW 11:03:12 10° WSW visible
09 Oct 5.5 08:39:42 10° NE 08:43:12 18° E 08:46:40 10° SE visible
09 Oct 3.1 10:17:33 10° N 10:22:29 51° WNW 10:27:22 10° SSW visible
10 Oct 3.2 09:40:30 10° NNE 09:45:36 72° ESE 09:50:39 10° S visible
11 Oct 4.7 09:03:58 10° NNE 09:08:29 32° E 09:13:00 10° SSE visible
11 Oct 3.8 10:43:00 10° N 10:47:24 30° WNW 10:51:47 10° SW visible
12 Oct 5.8 08:28:31 10° ENE 08:31:11 14° E 08:33:52 10° ESE visible
12 Oct 2.9 10:05:36 10° N 10:10:39 66° WNW 10:15:40 10° SSW visible
13 Oct 3.6 09:28:41 10° NNE 09:33:41 56° E 09:38:39 10° S visible
14 Oct 5.1 08:52:23 10° NE 08:56:32 25° E 09:00:39 10° SSE visible
14 Oct 3.5 10:30:56 10° N 10:35:37 38° WNW 10:40:17 10° SW visible
